Weather History for Alexander City, AL

Change the Weather History Date:

Monday, April 1, 2013

  Actual Average (KAUO) Record (KAUO)
Temperature  
Mean Temperature 66 °F -  
Max Temperature 77 °F - 84 °F (1978)
Min Temperature 54 °F - 25 °F (1987)
Degree Days  
Heating Degree Days 0    
Month to date heating degree days  
Since 1 July heating degree days  
Cooling Degree Days 0    
Month to date cooling degree days  
Year to date cooling degree days  
Growing Degree Days 16 (Base 50)    
Moisture  
Dew Point 48 °F    
Average Humidity 60    
Maximum Humidity 90    
Minimum Humidity 21    
Precipitation  
Precipitation 0.02 in - 5.90 in (1981)
Month to date precipitation  
Year to date precipitation  
Sea Level Pressure  
Sea Level Pressure 29.99 in    
Wind  
Wind Speed 4 mph (NW)    
Max Wind Speed 14 mph    
Max Gust Speed 18 mph    
Visibility 10 miles    
Events Rain    
T = Trace of Precipitation, MM = Missing Value Source: NWS Daily Summary

Daily Weather History Graph

Daily Weather History Graph

Search for Another Location

Airport:

Trip Planner

Search our weather history database for the weather conditions in past years. The results will help you decide how hot, cold, wet, or windy it might be!

Date:

Astronomy

Apr. 01, 2013 Rise Set
Actual Time 6:31 AM CDT 7:04 PM CDT
Civil Twilight 6:06 AM CDT 7:29 PM CDT
Nautical Twilight 5:37 AM CDT 7:58 PM CDT
Astronomical Twilight 5:07 AM CDT 8:28 PM CDT
Moon No Moon Rise 10:31 AM CDT (4/1)
Length of Visible Light 13h 22m
Length of Day
12h 32m
Waning Gibbous, 67% of the Moon is Illuminated
Apr 1
Waning Gibbous
Apr 2
Last Quarter
Apr 10
New
Apr 18
First Quarter
Apr 25
Full

Hourly Weather History & Observations

Time (CDT) Temp. Dew Point Humidity Pressure Visibility Wind Dir Wind Speed Gust Speed Precip Events Conditions
12:15 AM 61.0 °F 57.4 °F 88% 29.89 in 10.0 mi SW 4.6 mph - 0.01 in Rain Light Rain
12:35 AM 61.0 °F 57.6 °F 88% 29.89 in 10.0 mi Calm Calm - 0.01 in Rain Light Rain
12:55 AM 61.0 °F 57.7 °F 89% 29.89 in 10.0 mi Calm Calm - 0.02 in Rain Rain
1:15 AM 61.0 °F 57.7 °F 89% 29.91 in 10.0 mi Calm Calm - N/A   Mostly Cloudy
1:35 AM 61.0 °F 57.7 °F 89% 29.90 in 10.0 mi Calm Calm - N/A   Mostly Cloudy
1:55 AM 61.0 °F 57.7 °F 89% 29.90 in 10.0 mi Calm Calm - N/A   Overcast
2:15 AM 61.0 °F 57.7 °F 89% 29.89 in 10.0 mi Calm Calm - N/A   Overcast
2:35 AM 61.0 °F 57.7 °F 89% 29.90 in 10.0 mi West 4.6 mph - N/A   Overcast
3:15 AM 61.7 °F 58.5 °F 89% 29.90 in 10.0 mi Calm Calm - N/A   Overcast
3:35 AM 62.2 °F 59.0 °F 89% 29.91 in 10.0 mi West 4.6 mph - N/A   Overcast
3:55 AM 62.1 °F 59.0 °F 90% 29.91 in 10.0 mi West 4.6 mph - N/A   Overcast
4:15 AM 61.9 °F 58.6 °F 89% 29.91 in 10.0 mi West 3.5 mph - N/A   Overcast
4:35 AM 61.0 °F 57.7 °F 89% 29.91 in 7.0 mi West 4.6 mph - N/A   Overcast
5:15 AM 61.0 °F 57.9 °F 90% 29.93 in 7.0 mi WSW 3.5 mph - N/A   Overcast
5:35 AM 61.0 °F 57.9 °F 90% 29.93 in 7.0 mi WNW 3.5 mph - N/A   Overcast
5:55 AM 61.0 °F 57.7 °F 89% 29.94 in 7.0 mi Calm Calm - N/A   Overcast
6:15 AM 61.0 °F 57.7 °F 89% 29.95 in 7.0 mi Calm Calm - N/A   Mostly Cloudy
6:35 AM 61.0 °F 58.1 °F 90% 29.96 in 5.0 mi Calm Calm - N/A   Overcast
7:15 AM 61.0 °F 58.1 °F 90% 29.98 in 5.0 mi West 3.5 mph - N/A   Scattered Clouds
7:35 AM 61.0 °F 57.7 °F 89% 29.99 in 7.0 mi NW 4.6 mph - N/A   Clear
8:15 AM 62.4 °F 57.0 °F 82% 30.00 in 10.0 mi NW 6.9 mph - N/A   Scattered Clouds
8:35 AM 63.5 °F 57.0 °F 79% 30.01 in 10.0 mi NW 9.2 mph - N/A   Scattered Clouds
8:55 AM 63.5 °F 56.7 °F 78% 30.01 in 10.0 mi NNW 6.9 mph - N/A   Mostly Cloudy
9:15 AM 64.8 °F 56.5 °F 74% 30.01 in 10.0 mi NW 9.2 mph - N/A   Overcast
9:35 AM 65.3 °F 56.5 °F 73% 30.02 in 10.0 mi NW 6.9 mph - N/A   Overcast
9:55 AM 67.1 °F 56.3 °F 68% 30.01 in 10.0 mi NNW 6.9 mph - N/A   Scattered Clouds
10:15 AM 69.8 °F 57.0 °F 64% 30.02 in 10.0 mi NNW 6.9 mph - N/A   Scattered Clouds
10:35 AM 68.2 °F 56.1 °F 65% 30.03 in 10.0 mi NNW 8.1 mph - N/A   Mostly Cloudy
11:15 AM 69.8 °F 51.8 °F 53% 30.03 in 10.0 mi NNW 9.2 mph 18.4 mph N/A   Scattered Clouds
11:35 AM 70.0 °F 50.5 °F 50% 30.03 in 10.0 mi NW 8.1 mph - N/A   Scattered Clouds
11:55 AM 72.9 °F 48.2 °F 42% 30.04 in 10.0 mi WNW 5.8 mph - N/A   Scattered Clouds
12:15 PM 72.9 °F 47.8 °F 41% 30.03 in 10.0 mi NW 8.1 mph - N/A   Clear
12:35 PM 74.8 °F 46.6 °F 37% 30.03 in 10.0 mi NNW 8.1 mph - N/A   Clear
1:15 PM 74.8 °F 40.5 °F 29% 30.02 in 10.0 mi WNW 9.2 mph 17.3 mph N/A   Clear
1:35 PM 74.8 °F 36.7 °F 25% 30.02 in 10.0 mi North 10.4 mph 17.3 mph N/A   Scattered Clouds
1:55 PM 74.8 °F 38.7 °F 27% 30.02 in 10.0 mi NNW 5.8 mph - N/A   Clear
2:15 PM 74.8 °F 35.2 °F 24% 30.01 in 10.0 mi NNW 12.7 mph 17.3 mph N/A   Clear
2:35 PM 75.9 °F 36.7 °F 24% 30.01 in 10.0 mi West 6.9 mph 16.1 mph N/A   Clear
2:55 PM 74.8 °F 37.2 °F 26% 30.01 in 10.0 mi NW 10.4 mph 17.3 mph N/A   Clear
3:15 PM 76.8 °F 35.6 °F 22% 30.01 in 10.0 mi NW 9.2 mph 18.4 mph N/A   Clear
3:35 PM 75.7 °F 33.4 °F 21% 30.00 in 10.0 mi NW 13.8 mph 17.3 mph N/A   Clear
3:55 PM 75.4 °F 32.4 °F 21% 30.00 in 10.0 mi North 9.2 mph - N/A   Clear
4:15 PM 76.3 °F 34.0 °F 21% 30.00 in 10.0 mi NNW 11.5 mph 17.3 mph N/A   Clear
4:35 PM 77.0 °F 34.5 °F 21% 30.00 in 10.0 mi WNW 11.5 mph 17.3 mph N/A   Clear
4:55 PM 77.4 °F 35.1 °F 22% 29.99 in 10.0 mi NNW 12.7 mph 18.4 mph N/A   Clear
5:15 PM 74.8 °F 33.6 °F 22% 29.99 in 10.0 mi North 11.5 mph - N/A   Clear
5:35 PM 74.8 °F 32.2 °F 21% 29.99 in 10.0 mi West 9.2 mph - N/A   Clear
5:55 PM 74.8 °F 32.7 °F 21% 29.98 in 10.0 mi NW 5.8 mph - N/A   Clear
6:15 PM 74.8 °F 33.6 °F 22% 29.99 in 10.0 mi NNW 5.8 mph - N/A   Clear
6:35 PM 74.8 °F 35.6 °F 24% 30.00 in 10.0 mi NW 4.6 mph - N/A   Clear
6:55 PM 71.4 °F 35.2 °F 27% 30.00 in 10.0 mi NNW 4.6 mph - N/A   Clear
7:15 PM 69.8 °F 38.1 °F 31% 30.00 in 10.0 mi Calm Calm - N/A   Clear
7:35 PM 64.8 °F 43.2 °F 45% 30.01 in 10.0 mi West 3.5 mph - N/A   Clear
7:55 PM 62.2 °F 43.0 °F 49% 30.01 in 10.0 mi Calm Calm - N/A   Clear
8:15 PM 60.8 °F 45.1 °F 56% 30.02 in 10.0 mi Calm Calm - N/A   Clear
8:35 PM 59.9 °F 45.3 °F 59% 30.03 in 10.0 mi Calm Calm - N/A   Clear
8:55 PM 59.2 °F 45.9 °F 61% 30.04 in 10.0 mi Calm Calm - N/A   Clear
9:15 PM 57.2 °F 46.8 °F 68% 30.04 in 10.0 mi Calm Calm - N/A   Clear
9:35 PM 57.2 °F 45.1 °F 64% 30.04 in 10.0 mi Calm Calm - N/A   Clear
9:55 PM 57.2 °F 47.3 °F 69% 30.05 in 10.0 mi Calm Calm - N/A   Clear
10:15 PM 54.7 °F 46.2 °F 73% 30.05 in 10.0 mi Calm Calm - N/A   Clear
10:35 PM 54.7 °F 47.3 °F 76% 30.05 in 10.0 mi Calm Calm - N/A   Clear
10:55 PM 55.4 °F 47.5 °F 75% 30.05 in 10.0 mi NE 3.5 mph - N/A   Clear
11:15 PM 54.7 °F 46.4 °F 74% 30.06 in 10.0 mi Calm Calm - N/A   Clear
11:35 PM 54.7 °F 47.1 °F 76% 30.06 in 10.0 mi Calm Calm - N/A   Clear
11:55 PM 54.7 °F 47.7 °F 77% 30.06 in 10.0 mi Calm Calm - N/A   Clear